Destiny

operational
NORAD ID: 26700 Int'l Des: 2001-006 Owner: JSC Country: US
LEOCIRCULAR

Destinyについて

説明を読み込み中...

リアルタイム位置

3D地球を読み込み中...

次回通過

高度履歴

Altitude vs Time

uPlot chart will show altitude changes over time

軌道要素

1 26700U 01006B 26063.15679535 .00010207 00000-0 19684-3 0 9991
2 26700 51.6316 99.7104 0008201 155.0339 205.1047 15.48434477555591
Epoch: Mar 4, 2026 • Age: 9 hours

現在のステータス

高度 426.0 km
速度 7.66 km/s
衛星直下点 48.02°N, 133.11°W
打ち上げ日 Feb 7, 2001
運用期間 25 years
タイプ other

技術仕様

分類 Payload
質量 13547.00 kg
乾燥質量 11300.00 kg
総質量 13547.00 kg
長さ 9.20 m
直径 4.40 m
スパン 9.20 m
形状 Cyl
製造者 BOHSV
バスタイプ ISS Module
フェーズステータス Attached
所有者/国 JSC/US

大規模コンステレーション

Loading constellations...